TimeCST,TemperatureF,Dew PointF,Humidity,Sea Level PressureIn,VisibilityMPH,Wind Direction,Wind SpeedMPH,Gust SpeedMPH,PrecipitationIn,Events,Conditions,WindDirDegrees,DateUTC
12:14 AM,-2.2,-7.6,78,30.14,10.0,NW,9.2,-,N/A,,Overcast,320,2013-01-14 06:14:00
12:34 AM,-2.2,-7.6,78,30.15,10.0,NW,8.1,-,N/A,,Overcast,310,2013-01-14 06:34:00
12:53 AM,-2.2,-7.6,78,30.14,10.0,NW,11.5,-,N/A,,Overcast,310,2013-01-14 06:53:00
1:14 AM,-2.2,-7.6,78,30.14,10.0,WNW,6.9,-,N/A,,Overcast,300,2013-01-14 07:14:00
1:34 AM,-2.2,-7.6,78,30.15,10.0,West,5.8,-,N/A,,Overcast,270,2013-01-14 07:34:00
1:53 AM,-2.2,-7.6,78,30.15,10.0,West,6.9,-,N/A,,Overcast,270,2013-01-14 07:53:00
2:13 AM,-2.2,-7.6,78,30.15,10.0,WNW,5.8,-,N/A,,Overcast,290,2013-01-14 08:13:00
2:53 AM,-0.4,-7.6,72,30.16,10.0,West,5.8,-,N/A,,Overcast,260,2013-01-14 08:53:00
3:13 AM,-0.4,-7.6,72,30.17,10.0,West,5.8,-,N/A,,Overcast,270,2013-01-14 09:13:00
3:34 AM,-0.4,-7.6,72,30.16,10.0,WSW,4.6,-,N/A,,Overcast,250,2013-01-14 09:34:00
3:53 AM,-2.2,-7.6,78,30.16,10.0,WSW,4.6,-,N/A,,Overcast,240,2013-01-14 09:53:00
4:13 AM,-2.2,-7.6,78,30.15,10.0,SW,5.8,-,N/A,,Overcast,220,2013-01-14 10:13:00
4:34 AM,-2.2,-7.6,78,30.15,10.0,SSW,4.6,-,N/A,,Overcast,210,2013-01-14 10:34:00
4:53 AM,-4.0,-7.6,85,30.15,10.0,SW,5.8,-,N/A,,Overcast,220,2013-01-14 10:53:00
5:13 AM,-5.8,-9.4,84,30.15,10.0,SW,6.9,-,N/A,,Overcast,220,2013-01-14 11:13:00
5:34 AM,-5.8,-9.4,84,30.15,10.0,SSW,5.8,-,N/A,,Overcast,210,2013-01-14 11:34:00
5:53 AM,-5.8,-9.4,84,30.16,10.0,SW,6.9,-,N/A,,Overcast,220,2013-01-14 11:53:00
6:13 AM,-5.8,-9.4,84,30.16,10.0,SW,5.8,-,N/A,,Overcast,220,2013-01-14 12:13:00
6:34 AM,-4.0,-7.6,85,30.17,7.0,SW,4.6,-,N/A,,Overcast,220,2013-01-14 12:34:00
6:53 AM,-4.0,-7.6,85,30.17,7.0,SW,3.5,-,N/A,,Overcast,220,2013-01-14 12:53:00
7:13 AM,-2.2,-7.6,78,30.17,10.0,SW,5.8,-,N/A,,Overcast,220,2013-01-14 13:13:00
7:34 AM,-2.2,-7.6,78,30.18,10.0,SW,5.8,-,N/A,,Overcast,220,2013-01-14 13:34:00
7:53 AM,-2.2,-5.8,85,30.18,10.0,SW,6.9,-,N/A,,Overcast,220,2013-01-14 13:53:00
8:13 AM,-2.2,-5.8,85,30.18,10.0,SW,4.6,-,N/A,,Overcast,220,2013-01-14 14:13:00
8:34 AM,-0.4,-5.8,78,30.19,7.0,SSW,5.8,-,N/A,,Overcast,210,2013-01-14 14:34:00
8:53 AM,-0.4,-5.8,78,30.19,4.0,SSW,5.8,-,N/A,,Haze,200,2013-01-14 14:53:00
9:13 AM,-0.4,-5.8,78,30.19,4.0,SW,8.1,-,N/A,,Haze,220,2013-01-14 15:13:00
9:34 AM,-0.4,-5.8,78,30.19,5.0,SSW,5.8,-,N/A,,Haze,210,2013-01-14 15:34:00
9:53 AM,-0.4,-4.0,85,30.19,7.0,SSW,6.9,-,N/A,,Overcast,200,2013-01-14 15:53:00
10:13 AM,1.4,-4.0,78,30.19,10.0,SSW,6.9,-,N/A,,Overcast,200,2013-01-14 16:13:00
10:34 AM,1.4,-4.0,78,30.19,10.0,SSW,11.5,-,N/A,,Overcast,210,2013-01-14 16:34:00
10:53 AM,1.4,-2.2,85,30.19,10.0,SSW,10.4,-,N/A,,Overcast,210,2013-01-14 16:53:00
11:13 AM,3.2,-2.2,78,30.19,10.0,SSW,6.9,-,N/A,,Mostly Cloudy,200,2013-01-14 17:13:00
11:34 AM,3.2,-2.2,78,30.18,7.0,South,9.2,-,N/A,,Overcast,180,2013-01-14 17:34:00
11:53 AM,3.2,-2.2,78,30.18,10.0,South,11.5,-,N/A,,Overcast,180,2013-01-14 17:53:00
12:13 PM,3.2,-2.2,78,30.18,7.0,South,10.4,-,N/A,Snow,Light Snow,180,2013-01-14 18:13:00
12:34 PM,3.2,-2.2,78,30.17,10.0,South,9.2,-,N/A,,Overcast,190,2013-01-14 18:34:00
12:54 PM,3.2,-2.2,78,30.17,10.0,SSW,10.4,-,N/A,,Overcast,210,2013-01-14 18:54:00
1:13 PM,3.2,-2.2,78,30.17,3.0,SSW,6.9,-,N/A,,Haze,200,2013-01-14 19:13:00
1:34 PM,3.2,-2.2,78,30.16,7.0,South,6.9,-,N/A,,Overcast,190,2013-01-14 19:34:00
1:54 PM,3.2,-2.2,78,30.16,7.0,SSW,10.4,-,N/A,,Overcast,210,2013-01-14 19:54:00
2:13 PM,3.2,-2.2,78,30.16,5.0,SSW,10.4,-,N/A,,Haze,210,2013-01-14 20:13:00
2:54 PM,3.2,-2.2,78,30.16,3.0,SW,13.8,-,N/A,Snow,Light Snow,230,2013-01-14 20:54:00
3:13 PM,3.2,-2.2,78,30.16,10.0,WSW,9.2,-,N/A,,Overcast,240,2013-01-14 21:13:00
3:34 PM,3.2,-2.2,78,30.16,10.0,SW,8.1,-,N/A,,Overcast,230,2013-01-14 21:34:00
3:54 PM,3.2,-2.2,78,30.16,7.0,WSW,11.5,-,N/A,,Overcast,250,2013-01-14 21:54:00
4:34 PM,1.4,-2.2,85,30.16,7.0,SW,5.8,-,N/A,,Overcast,220,2013-01-14 22:34:00
4:54 PM,1.4,-4.0,78,30.15,10.0,SW,8.1,-,N/A,,Overcast,220,2013-01-14 22:54:00
5:13 PM,1.4,-4.0,78,30.15,7.0,SSW,5.8,-,N/A,Snow,Light Snow,210,2013-01-14 23:13:00
5:34 PM,-0.4,-4.0,85,30.15,5.0,SSW,3.5,-,N/A,Snow,Light Snow,200,2013-01-14 23:34:00
5:54 PM,-0.4,-4.0,85,30.15,10.0,SSW,5.8,-,N/A,,Scattered Clouds,210,2013-01-14 23:54:00
6:13 PM,-2.2,-7.6,78,30.15,10.0,South,5.8,-,N/A,Snow,Light Snow,190,2013-01-15 00:13:00
6:34 PM,-2.2,-5.8,85,30.15,10.0,SW,8.1,-,N/A,,Overcast,220,2013-01-15 00:34:00
6:54 PM,-2.2,-5.8,85,30.15,10.0,SW,10.4,-,N/A,,Overcast,220,2013-01-15 00:54:00
7:13 PM,-2.2,-5.8,85,30.15,10.0,SW,9.2,-,N/A,,Overcast,230,2013-01-15 01:13:00
7:34 PM,-2.2,-5.8,85,30.15,10.0,SW,5.8,-,N/A,,Overcast,220,2013-01-15 01:34:00
7:53 PM,-2.2,-7.6,78,30.15,10.0,SW,6.9,-,N/A,,Overcast,220,2013-01-15 01:53:00
8:13 PM,-2.2,-7.6,78,30.15,10.0,SW,4.6,-,N/A,,Overcast,220,2013-01-15 02:13:00
8:34 PM,-2.2,-5.8,85,30.15,10.0,SW,3.5,-,N/A,,Overcast,220,2013-01-15 02:34:00
8:53 PM,-2.2,-7.6,78,30.14,5.0,Calm,Calm,-,N/A,Snow,Light Snow,0,2013-01-15 02:53:00
9:13 PM,-2.2,-7.6,78,30.14,4.0,South,3.5,-,N/A,Snow,Light Snow,180,2013-01-15 03:13:00
9:33 PM,-5.8,-9.4,84,30.13,4.0,South,3.5,-,N/A,Snow,Light Snow,170,2013-01-15 03:33:00
10:13 PM,-5.8,-9.4,84,30.12,7.0,South,3.5,-,N/A,Snow,Light Snow,170,2013-01-15 04:13:00
10:33 PM,-5.8,-9.4,84,30.11,10.0,SSE,5.8,-,N/A,Snow,Light Snow,150,2013-01-15 04:33:00
10:54 PM,-7.6,-11.2,84,30.11,7.0,SSE,4.6,-,N/A,Snow,Light Snow,150,2013-01-15 04:54:00
11:13 PM,-7.6,-11.2,84,30.10,7.0,SSE,4.6,-,N/A,Snow,Light Snow,150,2013-01-15 05:13:00
11:33 PM,-7.6,-11.2,84,30.10,7.0,SSE,4.6,-,N/A,Snow,Light Snow,160,2013-01-15 05:33:00
11:54 PM,-5.8,-9.4,84,30.10,10.0,SSE,4.6,-,N/A,,Overcast,150,2013-01-15 05:54:00